STARLINK-34093, 64015

Orbit data source: Space-Track

STARLINK-34093, 64015 is a payload satellite owned by SpaceX/Seattle (US) in LEO that was launched on Wed, 14 May 2025 UTC via an FALCON 9 launch vehicle from the Air Force Eastern Test Range (AFETR). Payload-class satellites include a variety of spacecraft equipped with specific instruments for various scientific and technological missions. These include communications satellites like Starlink; space stations such as the ISS; scientific satellites like the Hubble; Earth observation satellites from companies like Planet Labs, Umbra, and HawkEye 360; GPS; miniature CubeSats for education and research; and military/defense satellites.

Loading next visibility...
Identifier
64015, 2025-101X
Orbit
LEO
Country
Flag of USUS
Related business
Manufacturer
SpaceX/Seattle
Mission
Operational Commercial Communications
Bus & Motor
STARLINK V2MO, Unknown motor
Mass
575 kg wet, ~530 kg dry
Launch date (UTC)
2025-05-14 (1 year ago)
Launch vehicle
FALCON 9
Launch site
Air Force Eastern Test Range (AFETR)
Object type
Payload
Rocket body
Debris
Shape & HBR
Box + 2 Pan, 17.7 m
Radar Cross Section
36.964 m², Large (>1 m²)

Expand to show TLE details & history
Last TLE update: 16 hours ago

TLE from 16 hours ago
0 STARLINK-34093
1 64015U 25101X   26171.19089610  .00020171  00000-0  74048-3 0  9993
2 64015  43.0004 138.8944 0001394 270.9291  89.1401 15.27581009 62732
Epoch: 2026-06-20T04:34Z
TLE epoch observation values (Epoch: 2026-06-20T04:34:53.423Z)
Latitude
0.00001°
Longitude
161.76274°
Altitude
482.807 km
Speed
7.626 km/s
True Right ascension
09h 15m 34s
True Declination
0° 00' 00"
Sunlit
Object was in daylight at epoch
Visualization orbit readout
Latitude
Unknown
Longitude
Unknown
Altitude
Unknown
Speed
Unknown
Apparent Right ascension
Unknown
Apparent Declination
Unknown
Sunlit
N/A
Visualization observer readout
Local Sidereal Time
07:12:54
Azimuth
Unknown
Elevation
Unknown
Doppler factor
Unknown
Orbital elements
Apogee altitude
485.948 km
Perigee altitude
484.034 km
Semi-major axis
6,863.128 km
Eccentricity
0.00014
Inclination
43.0004°
RAAN
138.8944°
Arg. of periapsis
270.9291°
True anomaly
89.15607°
Mean anomaly
89.1401°
Eccentric anomaly
89.14809°
Mean motion
3.81733 °/min
Orbital period
94.31 mins
BSTAR
0.00074048
Loading maneuver chart data...
Computing Atmospheric mass density...
Loading historical data...
Loading historical data...
Loading historical data...
Loading historical data...
Loading historical data...
Loading historical data...
Loading historical data...

Documentation

Showing up to 5 results
|